Leadville, CO

11:43 AM MDT on July 20, 2017 (GMT -0600)
Lake County

Weather History for KLXV - February, 2013

Change the Weather History Date:

Saturday, February 23, 2013

  Actual Average Record
Temperature  
Mean Temperature 14 °F -  
Max Temperature 31 °F 33 °F 46 °F (2002)
Min Temperature -4 °F 6 °F -11 °F (1979)
Degree Days  
Heating Degree Days 51 46  
Month to date heating degree days 1165 1087  
Since 1 July heating degree days 7255 7484  
Cooling Degree Days 0 0  
Month to date cooling degree days 0 0  
Year to date cooling degree days 0 0  
Moisture  
Dew Point 3 °F    
Average Humidity 68    
Maximum Humidity 88    
Minimum Humidity 47    
Precipitation  
Precipitation T in 0.03 in 0.42 in (1977)
Month to date precipitation 0.67 0.56  
Year to date precipitation 1.34 1.18  
Sea Level Pressure  
Sea Level Pressure 29.75 in    
Wind  
Wind Speed 6 mph (North)    
Max Wind Speed 21 mph    
Max Gust Speed 29 mph    
Visibility 10 miles    
Events      
T = Trace of Precipitation, MM = Missing Value Source: NWS Daily Summary

Daily Weather History Graph

Daily Weather History Graph

Search for Another Location

Airport or City:

Trip Planner

Search our weather history database for the weather conditions in past years. The results will help you decide how hot, cold, wet, or windy it might be!

Date:

Astronomy

Feb. 23, 2013 Rise Set
Actual Time 6:46 AM MST 5:51 PM MST
Civil Twilight 6:19 AM MST 6:18 PM MST
Nautical Twilight 5:47 AM MST 6:49 PM MST
Astronomical Twilight 5:16 AM MST 7:20 PM MST
Moon 4:05 PM MST (2/23) 5:09 AM MST (2/23)
Length of Visible Light 11h 59m
Length of Day
11h 05m
Waxing Gibbous, 95% of the Moon is Illuminated
Feb 23
Waxing Gibbous
Feb 25
Full
Mar 4
Last Quarter
Mar 11
New
Mar 19
First Quarter

Hourly Weather History & Observations

Time (MST) Temp. Windchill Dew Point Humidity Pressure Visibility Wind Dir Wind Speed Gust Speed Precip Events Conditions
12:53 AM -0.0 °F -13.0 °F -7.1 °F 72% 29.92 in 10.0 mi NNE 6.9 mph - N/A   Overcast
1:53 AM 1.0 °F -14.0 °F -6.0 °F 72% 29.93 in 10.0 mi NNE 9.2 mph - N/A   Mostly Cloudy
2:00 AM -0.4 °F -16.7 °F -7.6 °F 72% 29.84 in 10.0 mi NNE 10.4 mph - N/A   Scattered Clouds
2:53 AM -2.0 °F -16.6 °F -8.0 °F 76% 29.94 in 10.0 mi NE 8.1 mph - N/A   Clear
3:32 AM -0.4 °F -10.4 °F -5.8 °F 78% 29.84 in 10.0 mi NE 4.6 mph - N/A   Mostly Cloudy
3:39 AM -2.2 °F -14.2 °F -7.6 °F 78% 29.83 in 10.0 mi NE 5.8 mph - N/A   Scattered Clouds
3:48 AM -0.4 °F -13.4 °F -5.8 °F 78% 29.82 in 10.0 mi ENE 6.9 mph - N/A   Mostly Cloudy
3:53 AM -0.0 °F -14.2 °F -6.0 °F 76% 29.93 in 10.0 mi ENE 8.1 mph - N/A   Scattered Clouds
4:53 AM -2.9 °F -18.8 °F -7.1 °F 82% 29.94 in 10.0 mi NNE 9.2 mph - N/A   Clear
5:53 AM 1.0 °F -17.3 °F -6.0 °F 72% 29.92 in 10.0 mi North 13.8 mph - N/A   Clear
6:53 AM 1.0 °F -15.8 °F -7.1 °F 69% 29.95 in 10.0 mi North 11.5 mph - N/A   Partly Cloudy
7:53 AM 3.0 °F -14.1 °F -5.1 °F 69% 29.92 in 10.0 mi NE 12.7 mph 19.6 mph N/A   Scattered Clouds
8:53 AM 14.0 °F -3.0 °F -0.0 °F 54% 29.84 in 10.0 mi North 18.4 mph 26.5 mph N/A   Scattered Clouds
9:53 AM 19.9 °F 9.3 °F 3.9 °F 50% 29.79 in 10.0 mi NW 9.2 mph 21.9 mph N/A   Clear
10:53 AM 23.0 °F 13.9 °F 8.1 °F 53% 29.77 in 10.0 mi North 8.1 mph - N/A   Mostly Cloudy
11:53 AM 27.0 °F 20.5 °F 12.0 °F 53% 29.70 in 10.0 mi North 5.8 mph - N/A   Overcast
12:53 PM 27.0 °F 18.0 °F 10.9 °F 51% 29.68 in 10.0 mi WNW 9.2 mph - N/A   Overcast
1:53 PM 27.0 °F 19.5 °F 15.1 °F 61% 29.65 in 10.0 mi NW 6.9 mph - N/A   Overcast
2:53 PM 30.0 °F - 12.9 °F 49% 29.63 in 10.0 mi Calm Calm - N/A   Overcast
3:53 PM 28.9 °F 22.8 °F 12.9 °F 51% 29.57 in 10.0 mi North 5.8 mph - 0.00 in   Scattered Clouds
4:53 PM 25.0 °F - 12.0 °F 58% 29.61 in 10.0 mi Calm Calm - N/A   Mostly Cloudy
5:53 PM 23.0 °F 14.7 °F 10.9 °F 60% 29.63 in 10.0 mi West 6.9 mph - N/A   Overcast
6:53 PM 19.9 °F - 12.0 °F 71% 29.65 in 10.0 mi Calm Calm - N/A   Mostly Cloudy
7:53 PM 17.1 °F - 12.0 °F 81% 29.67 in 10.0 mi Calm Calm - N/A   Scattered Clouds
8:46 PM 17.6 °F 7.3 °F 10.4 °F 73% 29.62 in 10.0 mi WNW 8.1 mph - N/A   Overcast
8:53 PM 16.0 °F - 10.9 °F 81% 29.62 in 10.0 mi Calm Calm - N/A   Overcast
9:02 PM 15.8 °F 8.6 °F 10.4 °F 79% 29.62 in 10.0 mi ENE 4.6 mph - N/A   Mostly Cloudy
9:53 PM 15.1 °F - 10.0 °F 80% 29.57 in 10.0 mi Calm Calm - N/A   Mostly Cloudy
10:53 PM 14.0 °F - 10.0 °F 84% 29.54 in 10.0 mi Calm Calm - N/A   Overcast
11:53 PM 12.9 °F - 8.1 °F 81% 29.51 in 10.0 mi Calm Calm - N/A   Mostly Cloudy